Regional Weather Roundup
Issued by NWS Newport/Morehead, NC

Current Version | Previous Version | Graphics & Text | Print | Product List | Glossary Off
Versions: 1 2 3 4 5 6 7 8 9 10 11 12 13 14 15 16 17 18 19 20 21 22 23 24 25 26 27 28 29 30 31 32 33 34 35 36 37 38 39 40 41 42 43 44 45 46 47 48 49 50

000
ASUS42 KMHX 230122
RWRMHX
WEATHER ROUNDUP FOR EASTERN NORTH CAROLINA
NATIONAL WEATHER SERVICE NEWPORT/MOREHEAD CITY NC
900 PM EDT FRI AUG 22 2014

NOTE: "FAIR" INDICATES FEW OR NO CLOUDS BELOW 12,000 FEET
WITH NO SIGNIFICANT WEATHER AND/OR OBSTRUCTIONS TO VISIBILITY

NCZ015>017-031-032-045>047-102-103-230200-
NORTH COAST

CITY           SKY/WX    TMP DP  RH WIND       PRES   REMARKS
EDENTON        MOCLDY    77  73  88 NE3       29.95S
ELIZABETH CITY MOCLDY    78  71  79 N6        29.95R
KITTY HAWK     MOCLDY    78  73  83 N3        29.94S
MANTEO         MOCLDY    79  72  78 N7        29.95S

$$

NCZ045>047-081-094-103-104-230200-
CENTRAL COAST

CITY           SKY/WX    TMP DP  RH WIND       PRES   REMARKS
FRISCO         MOCLDY    79  75  87 E6        29.93S
SWANQUARTER      N/A     79 N/A N/A N3        29.91S

$$

NCZ095-097-098-100-101-230200-
SOUTHERN COAST

CITY           SKY/WX    TMP DP  RH WIND       PRES   REMARKS
BEAUFORT       PTCLDY    84  78  82 W3        29.94R
CEDAR ISLAND     N/A     84 N/A N/A N14       29.97S
JACKSONVILLE   MOCLDY    84  72  67 NW8       29.94R
NEWPORT        NOT AVBL
PINEY ISLAND   MOCLDY    85  74  69 N8        29.94R
WILMINGTON     TSTM      72  69  90 S6        29.99F FOG


$$

NCZ011>013-027>030-043-044-078>080-089-090>093-098-230200-
COASTAL PLAIN

CITY           SKY/WX    TMP DP  RH WIND       PRES   REMARKS
AHOSKIE        PTCLDY    76  72  87 CALM      29.96R
CLINTON        NOT AVBL
ELIZABETHTOWN  MOCLDY    77  71  81 E5        29.96R
GOLDSBORO      MOCLDY    78  75  90 CALM      29.93S
GREENVILLE     MOCLDY    79  73  83 SW3       29.96S
HAVELOCK       PTCLDY    85  74  69 N6        29.95R
KENANSVILLE    CLOUDY    73  71  93 CALM      29.96R
KINSTON        PTCLDY    81  73  78 CALM      29.96R
NEW BERN       PTCLDY    84  73  69 N5        29.95R
RICHLANDS      CLOUDY    79  72  78 S3        29.95S
ROANOKE RAPIDS NOT AVBL
ROCKY MOUNT    MOCLDY    77  73  87 CALM      29.95S
WASHINGTON     MOCLDY    77  73  86 CALM      29.95S
WHITEVILLE     MOCLDY    81  73  78 E7        29.95S

$$

AMZ130-135-150-152-154-156-158-170-250-252-270-ANZ085-086-088-633-658-670-230200-
MARINE OBSERVATIONS

STATION/POSITION TIME  TEMP    WIND        PRES    WAVE   SWELL
                       AIR SEA DIR/SP/G            HT/PER HT/PER
                 (UTC) (F)     (DEG/KT/KT) (MB)    (FT/S) (FT/S)
CHESAPEAKE LIGHT 0100   76      50/ 11/ 12 1014.9
BUOY 44014       0100   77 78   30/  8/ 10 1013.2    2/ 7   2/ 7
DUCK             0100   79 81   10/ 12/ 13 1013.0
2E DUCK          0100                        N/A     2/ 7
OREGON INLET     0100   79 85   20/  9/ 11 1013.9
BUOY 44095       0100      80                N/A     2/ 3
20E OREGON INLET NOT AVBL
HATTERAS CG      0100   81 84   50/  7/ 11 1014.3
DIAMOND BUOY     0100   80      10/  6/ 10 1013.5    2/ 8   2/ 8
CAPE LOOKOUT     0100   83     250/  7/  8 1013.6
BEAUFORT LAB     0100   84 83  300/  1/  4 1013.5
30 SE NEW RIVER  0100   84 83  240/ 10/ 12 1013.1    2/ 8   2/ 8
5 SE WRIGHTSVILL 0100   72 83  310/ 29/ 35   N/A
BUOY 41002       0017   82 83  250/ 12/ 14 1015.5    2/ 5   2/ 9
BUOY 41004       0100   85 85  200/ 10/ 12 1013.9    2/ 9   2/ 9

$$



USA.gov is the U.S. government's official web portal to all federal, state and local government web resources and services.